Regional Weather Roundup
Issued by NWS Northern Indiana

Home | Current Version | Previous Version | Graphics & Text | Print | Product List | Glossary On
Versions: 1 2 3 4 5 6 7 8 9 10 11 12 13 14 15 16 17 18 19 20 21 22 23 24 25 26 27 28 29 30 31 32 33 34 35 36 37 38 39 40 41 42 43 44 45 46 47 48 49 50
000
ASUS43 KIWX 231610
RWRIWX

KIWX WEATHER ROUNDUP
NATIONAL WEATHER SERVICE NORTHERN INDIANA
1200 PM EDT TUE SEP 23 2014

NOTE: "FAIR" INDICATES FEW OR NO CLOUDS BELOW 12,000 FEET WITH NO
SIGNIFICANT WEATHER AND/OR OBSTRUCTIONS TO VISIBILITY.

* THESE STATIONS ARE NOT UNDER NWS QUALITY CONTROL. THEY ALSO MAY NOT
  REPORT WEATHER SUCH AS PRECIPITATION OR FOG.

INZ001>027-231700-
NORTHERN INDIANA

CITY           SKY/WX    TMP DP  RH WIND       PRES   REMARKS
GARY*          SUNNY     66  46  48 VRB5      30.36R
VALPARAISO     SUNNY     64  47  53 SW6       30.37S
MICHIGAN CITY* SUNNY     64  46  52 CALM      30.36S
LAPORTE*       SUNNY     63  48  57 CALM      30.37S
KNOX*          SUNNY     63  47  54 SW3       30.36S
SOUTH BEND     SUNNY     65  48  54 W5        30.37S
ELKHART*       SUNNY     64  46  52 CALM      30.37R
GOSHEN         SUNNY    N/A N/A N/A SW3       30.36S
MONTICELLO*    SUNNY     64  49  57 CALM      30.36S
LOGANSPORT*    SUNNY     63  45  51 CALM      30.37S
ROCHESTER*     SUNNY     64  50  59 CALM      30.38R
WARSAW*        SUNNY     63  46  55 CALM      30.37S
ANGOLA*        SUNNY     64  46  52 VRB3      30.36F
FORT WAYNE     SUNNY     64  49  57 CALM      30.38S
HUNTINGTON*    SUNNY     62  49  62 CALM      30.37S
PERU/GRISSOM   SUNNY     64  50  60 NE6       30.36S
MARION*        SUNNY     64  45  50 N6        30.37F

$$
INZ028>050-231700-
CENTRAL INDIANA

CITY           SKY/WX    TMP DP  RH WIND       PRES   REMARKS
LAFAYETTE      SUNNY     64  48  56 NE3       30.36S
KOKOMO*        SUNNY     66  48  52 NE6       30.37S
MUNCIE*        SUNNY     63  33  32 N5        30.36F
INDIANAPOLIS   SUNNY     63  46  54 SE5       30.36S

$$
MIZ043>046-050>051-056>058-064>065-071>073-077>080-231700-
SOUTHWEST LOWER MICHIGAN

CITY           SKY/WX    TMP DP  RH WIND       PRES   REMARKS
BATTLE CREEK   SUNNY     64  49  57 VRB3      30.36S
BENTON HARBOR  SUNNY     63  51  65 SW5       30.35S
COLDWATER*     SUNNY     65  48  53 SW3       30.36F
HILLSDALE*     SUNNY     64  48  55 CALM      30.36F
HOLLAND        SUNNY     67  54  63 SW9       30.35R
GRAND RAPIDS   SUNNY     66  54  65 SW6       30.34S
KALAMAZOO      SUNNY     66  49  54 CALM      30.36S
STURGIS*       SUNNY     63  48  59 SW6       30.36S
THREE RIVERS*  FAIR      65  50  58 SW3       30.36S

$$
OHZ001>008-015>018-024>025-231700-
NORTHWEST OHIO

CITY           SKY/WX    TMP DP  RH WIND       PRES   REMARKS
WAUSEON*       FAIR      64  46  52 CALM      30.37S
DEFIANCE       SUNNY    N/A N/A N/A CALM      30.37S
FINDLAY        SUNNY     64  44  48 CALM      30.36S
TOLEDO EXPRESS SUNNY     63  45  51 CALM      30.37S
TOLEDO METCALF SUNNY     64  45  49 VRB3      30.37S
LIMA           SUNNY     64  45  49 CALM      30.36S

$$
AND FOR LAKE MICHIGAN COASTAL AND OPEN LAKE BUOY OBSERVATIONS

STATION/POSITION TEMP    WIND        PRES    VSBY  WAVE
                 AIR SEA DIR/SP/G                  HT/PER
                 (F)     (DEG/KT/KT) (MB)    (MI)  (FT/S)
CALUMET HARBOR    64     200/  5/  8 1026.4R
SAINT JOSEPH      62     200/  5/  8 1028.4S
SOUTH LAKE BUOY   61 61  230/ 10/ 12 1027.6R         2/ 4
4 MI NW BRIDGMAN  60 65  210/  8/ 10   N/A           1/ 3
MICHIGAN CITY     61 63  220/  6/  8   N/A           1/ 3

$$
&&



USA.gov is the U.S. government's official web portal to all federal, state and local government web resources and services.